#datetime,building,power
2023-10-14T00:01:00,pth,3.60
2023-10-14T00:03:00,pth,3.60
2023-10-14T00:04:00,pth,1.20
2023-10-14T00:06:00,pth,2.40
2023-10-14T00:07:00,pth,1.20
2023-10-14T00:08:00,pth,1.20
2023-10-14T00:10:00,pth,2.40
2023-10-14T00:11:00,pth,1.20
2023-10-14T00:12:00,pth,1.20
2023-10-14T00:14:00,pth,2.40
2023-10-14T00:15:00,pth,1.20
2023-10-14T00:16:00,pth,2.40
2023-10-14T00:18:00,pth,2.40
2023-10-14T00:19:00,pth,1.20
2023-10-14T00:21:00,pth,2.40
2023-10-14T00:23:00,pth,2.40
2023-10-14T00:24:00,pth,1.20
2023-10-14T00:26:00,pth,2.40
2023-10-14T00:27:00,pth,1.20
2023-10-14T00:28:00,pth,2.40
2023-10-14T00:30:00,pth,2.40
2023-10-14T00:32:00,pth,4.80
2023-10-14T00:34:00,pth,4.80
2023-10-14T00:36:00,pth,3.60
2023-10-14T00:38:00,pth,2.40
2023-10-14T00:40:00,pth,3.60
2023-10-14T00:42:00,pth,2.40
2023-10-14T00:43:00,pth,1.20
2023-10-14T00:45:00,pth,2.40
2023-10-14T00:46:00,pth,1.20
2023-10-14T00:48:00,pth,2.40
2023-10-14T00:50:00,pth,2.40
2023-10-14T00:52:00,pth,2.40
2023-10-14T00:53:00,pth,1.20
2023-10-14T00:55:00,pth,2.40
2023-10-14T00:56:00,pth,1.20
2023-10-14T00:57:00,pth,1.20
2023-10-14T00:59:00,pth,2.40
2023-10-14T01:00:00,pth,1.20
2023-10-14T01:02:00,pth,3.60
2023-10-14T01:03:00,pth,1.20
2023-10-14T01:05:00,pth,3.60
2023-10-14T01:07:00,pth,3.60
2023-10-14T01:09:00,pth,4.80
2023-10-14T01:10:00,pth,3.60
2023-10-14T01:12:00,pth,2.40
2023-10-14T01:14:00,pth,2.40
2023-10-14T01:15:00,pth,1.20
2023-10-14T01:17:00,pth,1.20
2023-10-14T01:19:00,pth,2.40
2023-10-14T01:20:00,pth,1.20
2023-10-14T01:22:00,pth,2.40
2023-10-14T01:23:00,pth,1.20
2023-10-14T01:25:00,pth,2.40
2023-10-14T01:27:00,pth,2.40
2023-10-14T01:29:00,pth,2.40
2023-10-14T01:30:00,pth,1.20
2023-10-14T01:32:00,pth,2.40
2023-10-14T01:34:00,pth,2.40
2023-10-14T01:36:00,pth,2.40
2023-10-14T01:37:00,pth,1.20
2023-10-14T01:38:00,pth,1.20
2023-10-14T01:39:00,pth,1.20
2023-10-14T01:41:00,pth,3.60
2023-10-14T01:43:00,pth,4.80
2023-10-14T01:45:00,pth,3.60
2023-10-14T01:47:00,pth,3.60
2023-10-14T01:48:00,pth,1.20
2023-10-14T01:50:00,pth,2.40
2023-10-14T01:51:00,pth,1.20
2023-10-14T01:53:00,pth,2.40
2023-10-14T01:55:00,pth,2.40
2023-10-14T01:56:00,pth,1.20
2023-10-14T01:58:00,pth,2.40
2023-10-14T02:00:00,pth,2.40
2023-10-14T02:01:00,pth,1.20
2023-10-14T02:02:00,pth,2.40
2023-10-14T02:04:00,pth,1.20
2023-10-14T02:06:00,pth,2.40
2023-10-14T02:08:00,pth,2.40
2023-10-14T02:09:00,pth,1.20
2023-10-14T02:11:00,pth,2.40
2023-10-14T02:12:00,pth,1.20
2023-10-14T02:13:00,pth,1.20
2023-10-14T02:15:00,pth,3.60
2023-10-14T02:16:00,pth,1.20
2023-10-14T02:18:00,pth,4.80
2023-10-14T02:20:00,pth,3.60
2023-10-14T02:21:00,pth,1.20
2023-10-14T02:23:00,pth,2.40
2023-10-14T02:25:00,pth,2.40
2023-10-14T02:27:00,pth,1.20
2023-10-14T02:28:00,pth,1.20
2023-10-14T02:29:00,pth,1.20
2023-10-14T02:31:00,pth,2.40
2023-10-14T02:32:00,pth,1.20
2023-10-14T02:34:00,pth,3.60
2023-10-14T02:35:00,pth,2.40
2023-10-14T02:37:00,pth,2.40
2023-10-14T02:39:00,pth,2.40
2023-10-14T02:41:00,pth,2.40
2023-10-14T02:43:00,pth,2.40
2023-10-14T02:45:00,pth,2.40
2023-10-14T02:47:00,pth,2.40
2023-10-14T02:49:00,pth,2.40
2023-10-14T02:50:00,pth,2.40
2023-10-14T02:51:00,pth,3.60
2023-10-14T02:53:00,pth,4.80
2023-10-14T02:55:00,pth,3.60
2023-10-14T02:56:00,pth,1.20
2023-10-14T02:58:00,pth,2.40
2023-10-14T03:00:00,pth,2.40
2023-10-14T03:02:00,pth,2.40
2023-10-14T03:03:00,pth,1.20
2023-10-14T03:05:00,pth,3.60
2023-10-14T03:07:00,pth,1.20
2023-10-14T03:09:00,pth,2.40
2023-10-14T03:10:00,pth,1.20
2023-10-14T03:12:00,pth,2.40
2023-10-14T03:14:00,pth,2.40
2023-10-14T03:16:00,pth,2.40
2023-10-14T03:18:00,pth,2.40
2023-10-14T03:19:00,pth,2.40
2023-10-14T03:21:00,pth,2.40
2023-10-14T03:22:00,pth,2.40
2023-10-14T03:23:00,pth,2.40
2023-10-14T03:25:00,pth,4.80
2023-10-14T03:27:00,pth,6.00
2023-10-14T03:29:00,pth,3.60
2023-10-14T03:31:00,pth,3.60
2023-10-14T03:32:00,pth,1.20
2023-10-14T03:34:00,pth,2.40
2023-10-14T03:35:00,pth,1.20
2023-10-14T03:37:00,pth,2.40
2023-10-14T03:39:00,pth,3.60
2023-10-14T03:41:00,pth,2.40
2023-10-14T03:43:00,pth,3.60
2023-10-14T03:44:00,pth,1.20
2023-10-14T03:45:00,pth,1.20
2023-10-14T03:47:00,pth,2.40
2023-10-14T03:48:00,pth,1.20
2023-10-14T03:49:00,pth,1.20
2023-10-14T03:51:00,pth,3.60
2023-10-14T03:53:00,pth,2.40
2023-10-14T03:55:00,pth,3.60
2023-10-14T03:57:00,pth,3.60
2023-10-14T03:59:00,pth,4.80
2023-10-14T04:01:00,pth,3.60
2023-10-14T04:03:00,pth,3.60
2023-10-14T04:04:00,pth,1.20
2023-10-14T04:06:00,pth,2.40
2023-10-14T04:08:00,pth,2.40
2023-10-14T04:09:00,pth,1.20
2023-10-14T04:11:00,pth,2.40
2023-10-14T04:13:00,pth,1.20
2023-10-14T04:15:00,pth,2.40
2023-10-14T04:17:00,pth,2.40
2023-10-14T04:18:00,pth,1.20
2023-10-14T04:19:00,pth,1.20
2023-10-14T04:21:00,pth,2.40
2023-10-14T04:23:00,pth,2.40
2023-10-14T04:24:00,pth,1.20
2023-10-14T04:26:00,pth,2.40
2023-10-14T04:28:00,pth,1.20
2023-10-14T04:29:00,pth,2.40
2023-10-14T04:31:00,pth,3.60
2023-10-14T04:33:00,pth,4.80
2023-10-14T04:35:00,pth,3.60
2023-10-14T04:37:00,pth,2.40
2023-10-14T04:39:00,pth,1.20
2023-10-14T04:40:00,pth,1.20
2023-10-14T04:42:00,pth,2.40
2023-10-14T04:44:00,pth,2.40
2023-10-14T04:46:00,pth,2.40
2023-10-14T04:47:00,pth,1.20
2023-10-14T04:49:00,pth,2.40
2023-10-14T04:51:00,pth,1.20
2023-10-14T04:52:00,pth,1.20
2023-10-14T04:54:00,pth,2.40
2023-10-14T04:56:00,pth,2.40
2023-10-14T04:57:00,pth,1.20
2023-10-14T04:59:00,pth,1.20
2023-10-14T05:01:00,pth,2.40
2023-10-14T05:03:00,pth,3.60
2023-10-14T05:04:00,pth,2.40
2023-10-14T05:06:00,pth,3.60
2023-10-14T05:07:00,pth,2.40
2023-10-14T05:09:00,pth,3.60
2023-10-14T05:11:00,pth,2.40
2023-10-14T05:13:00,pth,2.40
2023-10-14T05:16:00,pth,2.40
2023-10-14T05:18:00,pth,2.40
2023-10-14T05:20:00,pth,2.40
2023-10-14T05:22:00,pth,1.20
2023-10-14T05:24:00,pth,2.40
2023-10-14T05:25:00,pth,1.20
2023-10-14T05:27:00,pth,2.40
2023-10-14T05:28:00,pth,1.20
2023-10-14T05:29:00,pth,1.20
2023-10-14T05:31:00,pth,1.20
2023-10-14T05:33:00,pth,2.40
2023-10-14T05:35:00,pth,2.40
2023-10-14T05:36:00,pth,1.20
2023-10-14T05:38:00,pth,4.80
2023-10-14T05:39:00,pth,1.20
2023-10-14T05:41:00,pth,4.80
2023-10-14T05:43:00,pth,3.60
2023-10-14T05:44:00,pth,1.20
2023-10-14T05:45:00,pth,1.20
2023-10-14T05:47:00,pth,1.20
2023-10-14T05:49:00,pth,2.40
2023-10-14T05:50:00,pth,1.20
2023-10-14T05:52:00,pth,2.40
2023-10-14T05:53:00,pth,1.20
2023-10-14T05:55:00,pth,2.40
2023-10-14T05:56:00,pth,1.20
2023-10-14T05:58:00,pth,1.20
2023-10-14T06:00:00,pth,2.40
2023-10-14T06:02:00,pth,2.40
2023-10-14T06:03:00,pth,1.20
2023-10-14T06:05:00,pth,2.40
2023-10-14T06:07:00,pth,2.40
2023-10-14T06:09:00,pth,2.40
2023-10-14T06:11:00,pth,4.80
2023-10-14T06:13:00,pth,3.60
2023-10-14T06:15:00,pth,3.60
2023-10-14T06:17:00,pth,2.40
2023-10-14T06:19:00,pth,1.20
2023-10-14T06:20:00,pth,1.20
2023-10-14T06:22:00,pth,2.40
2023-10-14T06:24:00,pth,1.20
2023-10-14T06:25:00,pth,1.20
2023-10-14T06:27:00,pth,2.40
2023-10-14T06:29:00,pth,2.40
2023-10-14T06:31:00,pth,2.40
2023-10-14T06:32:00,pth,1.20
2023-10-14T06:34:00,pth,2.40
2023-10-14T06:36:00,pth,2.40
2023-10-14T06:38:00,pth,2.40
2023-10-14T06:40:00,pth,1.20
2023-10-14T06:42:00,pth,3.60
2023-10-14T06:44:00,pth,4.80
2023-10-14T06:45:00,pth,1.20
2023-10-14T06:47:00,pth,4.80
2023-10-14T06:49:00,pth,2.40
2023-10-14T06:51:00,pth,2.40
2023-10-14T06:52:00,pth,1.20
2023-10-14T06:53:00,pth,1.20
2023-10-14T06:54:00,pth,1.20
2023-10-14T06:56:00,pth,2.40
2023-10-14T06:58:00,pth,2.40
2023-10-14T07:00:00,pth,2.40
2023-10-14T07:02:00,pth,2.40
2023-10-14T07:04:00,pth,1.20
2023-10-14T07:06:00,pth,2.40
2023-10-14T07:07:00,pth,1.20
2023-10-14T07:09:00,pth,2.40
2023-10-14T07:10:00,pth,1.20
2023-10-14T07:12:00,pth,2.40
2023-10-14T07:13:00,pth,1.20
2023-10-14T07:14:00,pth,1.20
2023-10-14T07:16:00,pth,4.80
2023-10-14T07:18:00,pth,3.60
2023-10-14T07:20:00,pth,3.60
2023-10-14T07:21:00,pth,1.20
2023-10-14T07:23:00,pth,2.40
2023-10-14T07:24:00,pth,1.20
2023-10-14T07:25:00,pth,1.20
2023-10-14T07:26:00,pth,1.20
2023-10-14T07:28:00,pth,2.40
2023-10-14T07:30:00,pth,2.40
2023-10-14T07:31:00,pth,1.20
2023-10-14T07:33:00,pth,2.40
2023-10-14T07:34:00,pth,1.20
2023-10-14T07:35:00,pth,1.20
2023-10-14T07:37:00,pth,3.60
2023-10-14T07:39:00,pth,2.40
2023-10-14T07:41:00,pth,2.40
2023-10-14T07:43:00,pth,2.40
2023-10-14T07:45:00,pth,2.40
2023-10-14T07:47:00,pth,3.60
2023-10-14T07:48:00,pth,2.40
2023-10-14T07:50:00,pth,3.60
2023-10-14T07:52:00,pth,4.80
2023-10-14T07:54:00,pth,3.60
2023-10-14T07:56:00,pth,1.20
2023-10-14T07:57:00,pth,1.20
2023-10-14T07:59:00,pth,2.40
2023-10-14T08:01:00,pth,1.20
2023-10-14T08:03:00,pth,2.40
2023-10-14T08:04:00,pth,1.20
2023-10-14T08:05:00,pth,1.20
2023-10-14T08:07:00,pth,2.40
2023-10-14T08:08:00,pth,1.20
2023-10-14T08:10:00,pth,2.40
2023-10-14T08:11:00,pth,1.20
2023-10-14T08:13:00,pth,1.20
2023-10-14T08:15:00,pth,2.40
2023-10-14T08:17:00,pth,1.20
2023-10-14T08:19:00,pth,2.40
2023-10-14T08:21:00,pth,3.60
2023-10-14T08:23:00,pth,4.80
2023-10-14T08:25:00,pth,3.60
2023-10-14T08:27:00,pth,1.20
2023-10-14T08:28:00,pth,1.20
2023-10-14T08:29:00,pth,1.20
2023-10-14T08:31:00,pth,1.20
2023-10-14T08:33:00,pth,1.20
2023-10-14T08:35:00,pth,2.40
2023-10-14T08:37:00,pth,1.20
2023-10-14T08:39:00,pth,1.20
2023-10-14T08:40:00,pth,1.20
2023-10-14T08:42:00,pth,1.20
2023-10-14T08:44:00,pth,2.40
2023-10-14T08:46:00,pth,1.20
2023-10-14T08:47:00,pth,1.20
2023-10-14T08:49:00,pth,1.20
2023-10-14T08:51:00,pth,2.40
2023-10-14T08:53:00,pth,3.60
2023-10-14T08:55:00,pth,4.80
2023-10-14T08:57:00,pth,6.00
2023-10-14T08:59:00,pth,3.60
2023-10-14T09:00:00,pth,1.20
2023-10-14T09:01:00,pth,1.20
2023-10-14T09:03:00,pth,2.40
2023-10-14T09:04:00,pth,1.20
2023-10-14T09:06:00,pth,1.20
2023-10-14T09:07:00,pth,1.20
2023-10-14T09:09:00,pth,1.20
2023-10-14T09:11:00,pth,2.40
2023-10-14T09:12:00,pth,1.20
2023-10-14T09:14:00,pth,1.20
2023-10-14T09:15:00,pth,1.20
2023-10-14T09:17:00,pth,1.20
2023-10-14T09:19:00,pth,2.40
2023-10-14T09:21:00,pth,2.40
2023-10-14T09:24:00,pth,2.40
2023-10-14T09:26:00,pth,3.60
2023-10-14T09:27:00,pth,1.20
2023-10-14T09:28:00,pth,2.40
2023-10-14T09:29:00,pth,1.20
2023-10-14T09:31:00,pth,4.80
2023-10-14T09:32:00,pth,1.20
2023-10-14T09:34:00,pth,3.60
2023-10-14T09:36:00,pth,3.60
2023-10-14T09:38:00,pth,3.60
2023-10-14T09:39:00,pth,2.40
2023-10-14T09:41:00,pth,2.40
2023-10-14T09:44:00,pth,2.40
2023-10-14T09:46:00,pth,2.40
2023-10-14T09:48:00,pth,2.40
2023-10-14T09:50:00,pth,1.20
2023-10-14T09:52:00,pth,2.40
2023-10-14T09:54:00,pth,1.20
2023-10-14T09:55:00,pth,1.20
2023-10-14T09:57:00,pth,2.40
2023-10-14T09:59:00,pth,1.20
2023-10-14T10:00:00,pth,1.20
2023-10-14T10:02:00,pth,3.60
2023-10-14T10:04:00,pth,3.60
2023-10-14T10:05:00,pth,1.20
2023-10-14T10:07:00,pth,2.40
2023-10-14T10:08:00,pth,1.20
2023-10-14T10:10:00,pth,1.20
2023-10-14T10:11:00,pth,1.20
2023-10-14T10:13:00,pth,1.20
2023-10-14T10:15:00,pth,1.20
2023-10-14T10:16:00,pth,1.20
2023-10-14T10:18:00,pth,1.20
2023-10-14T10:20:00,pth,1.20
2023-10-14T10:21:00,pth,1.20
2023-10-14T10:23:00,pth,1.20
2023-10-14T10:25:00,pth,1.20
2023-10-14T10:27:00,pth,1.20
2023-10-14T10:28:00,pth,1.20
2023-10-14T10:30:00,pth,1.20
2023-10-14T10:32:00,pth,1.20
2023-10-14T10:34:00,pth,2.40
2023-10-14T10:36:00,pth,2.40
2023-10-14T10:38:00,pth,3.60
2023-10-14T10:40:00,pth,3.60
2023-10-14T10:41:00,pth,2.40
2023-10-14T10:43:00,pth,3.60
2023-10-14T10:45:00,pth,1.20
2023-10-14T10:46:00,pth,1.20
2023-10-14T10:48:00,pth,2.40
2023-10-14T10:50:00,pth,2.40
2023-10-14T10:52:00,pth,1.20
2023-10-14T10:53:00,pth,1.20
2023-10-14T10:54:00,pth,1.20
2023-10-14T10:56:00,pth,2.40
2023-10-14T10:57:00,pth,1.20
2023-10-14T10:59:00,pth,1.20
2023-10-14T11:01:00,pth,2.40
2023-10-14T11:02:00,pth,1.20
2023-10-14T11:04:00,pth,1.20
2023-10-14T11:06:00,pth,2.40
2023-10-14T11:08:00,pth,1.20
2023-10-14T11:10:00,pth,1.20
2023-10-14T11:12:00,pth,2.40
2023-10-14T11:13:00,pth,1.20
2023-10-14T11:15:00,pth,2.40
2023-10-14T11:16:00,pth,2.40
2023-10-14T11:18:00,pth,3.60
2023-10-14T11:19:00,pth,1.20
2023-10-14T11:21:00,pth,3.60
2023-10-14T11:23:00,pth,1.20
2023-10-14T11:24:00,pth,1.20
2023-10-14T11:26:00,pth,2.40
2023-10-14T11:28:00,pth,1.20
2023-10-14T11:30:00,pth,1.20
2023-10-14T11:31:00,pth,1.20
2023-10-14T11:33:00,pth,1.20
2023-10-14T11:34:00,pth,1.20
2023-10-14T11:35:00,pth,1.20
2023-10-14T11:37:00,pth,1.20
2023-10-14T11:39:00,pth,2.40
2023-10-14T11:40:00,pth,1.20
2023-10-14T11:41:00,pth,1.20
2023-10-14T11:43:00,pth,1.20
2023-10-14T11:45:00,pth,2.40
2023-10-14T11:47:00,pth,1.20
2023-10-14T11:49:00,pth,2.40
2023-10-14T11:51:00,pth,2.40
2023-10-14T11:53:00,pth,1.20
2023-10-14T11:55:00,pth,3.60
2023-10-14T11:57:00,pth,3.60
2023-10-14T11:58:00,pth,2.40
2023-10-14T12:00:00,pth,3.60
2023-10-14T12:02:00,pth,2.40
2023-10-14T12:03:00,pth,2.40
2023-10-14T12:05:00,pth,2.40
2023-10-14T12:07:00,pth,2.40
2023-10-14T12:08:00,pth,1.20
2023-10-14T12:10:00,pth,2.40
2023-10-14T12:11:00,pth,1.20
2023-10-14T12:12:00,pth,1.20
2023-10-14T12:14:00,pth,2.40
2023-10-14T12:15:00,pth,2.40
2023-10-14T12:17:00,pth,2.40
2023-10-14T12:18:00,pth,1.20
2023-10-14T12:20:00,pth,2.40
2023-10-14T12:22:00,pth,2.40
2023-10-14T12:24:00,pth,2.40
2023-10-14T12:25:00,pth,1.20
2023-10-14T12:27:00,pth,4.80
2023-10-14T12:29:00,pth,2.40
2023-10-14T12:30:00,pth,1.20
2023-10-14T12:31:00,pth,1.20
2023-10-14T12:33:00,pth,2.40
2023-10-14T12:35:00,pth,2.40
2023-10-14T12:36:00,pth,1.20
2023-10-14T12:38:00,pth,1.20
2023-10-14T12:40:00,pth,3.60
2023-10-14T12:41:00,pth,7.20
2023-10-14T12:43:00,pth,15.60
2023-10-14T12:45:00,pth,14.40
2023-10-14T12:47:00,pth,15.60
2023-10-14T12:49:00,pth,15.60
2023-10-14T12:51:00,pth,15.60
2023-10-14T12:53:00,pth,15.60
2023-10-14T12:55:00,pth,15.60
2023-10-14T12:56:00,pth,6.00
2023-10-14T12:58:00,pth,13.20
2023-10-14T12:59:00,pth,7.20
2023-10-14T13:00:00,pth,6.00
2023-10-14T13:01:00,pth,6.00
2023-10-14T13:03:00,pth,12.00
2023-10-14T13:05:00,pth,13.20
2023-10-14T13:07:00,pth,13.20
2023-10-14T13:09:00,pth,14.40
2023-10-14T13:10:00,pth,8.40
2023-10-14T13:12:00,pth,13.20
2023-10-14T13:14:00,pth,12.00
2023-10-14T13:16:00,pth,14.40
2023-10-14T13:18:00,pth,15.60
2023-10-14T13:20:00,pth,13.20
2023-10-14T13:21:00,pth,6.00
2023-10-14T13:23:00,pth,13.20
2023-10-14T13:25:00,pth,13.20
2023-10-14T13:26:00,pth,6.00
2023-10-14T13:28:00,pth,13.20
2023-10-14T13:30:00,pth,13.20
2023-10-14T13:32:00,pth,13.20
2023-10-14T13:34:00,pth,14.40
2023-10-14T13:36:00,pth,14.40
2023-10-14T13:38:00,pth,15.60
2023-10-14T13:39:00,pth,7.20
2023-10-14T13:41:00,pth,4.80
2023-10-14T13:42:00,pth,1.20
2023-10-14T13:44:00,pth,13.20
2023-10-14T13:46:00,pth,14.40
2023-10-14T13:47:00,pth,4.80
2023-10-14T13:48:00,pth,1.20
2023-10-14T13:50:00,pth,2.40
2023-10-14T13:52:00,pth,12.00
2023-10-14T13:53:00,pth,7.20
2023-10-14T13:55:00,pth,12.00
2023-10-14T13:57:00,pth,2.40
2023-10-14T13:58:00,pth,1.20
2023-10-14T14:00:00,pth,10.80
2023-10-14T14:02:00,pth,12.00
2023-10-14T14:04:00,pth,4.80
2023-10-14T14:05:00,pth,2.40
2023-10-14T14:07:00,pth,2.40
2023-10-14T14:09:00,pth,3.60
2023-10-14T14:10:00,pth,2.40
2023-10-14T14:12:00,pth,2.40
2023-10-14T14:14:00,pth,4.80
2023-10-14T14:15:00,pth,1.20
2023-10-14T14:17:00,pth,3.60
2023-10-14T14:18:00,pth,1.20
2023-10-14T14:19:00,pth,1.20
2023-10-14T14:21:00,pth,3.60
2023-10-14T14:22:00,pth,1.20
2023-10-14T14:24:00,pth,2.40
2023-10-14T14:25:00,pth,1.20
2023-10-14T14:27:00,pth,2.40
2023-10-14T14:29:00,pth,2.40
2023-10-14T14:30:00,pth,1.20
2023-10-14T14:32:00,pth,2.40
2023-10-14T14:34:00,pth,1.20
2023-10-14T14:36:00,pth,2.40
2023-10-14T14:37:00,pth,4.80
2023-10-14T14:38:00,pth,6.00
2023-10-14T14:40:00,pth,13.20
2023-10-14T14:42:00,pth,14.40
2023-10-14T14:43:00,pth,6.00
2023-10-14T14:44:00,pth,6.00
2023-10-14T14:46:00,pth,13.20
2023-10-14T14:47:00,pth,7.20
2023-10-14T14:49:00,pth,10.80
2023-10-14T14:50:00,pth,2.40
2023-10-14T14:52:00,pth,10.80
2023-10-14T14:54:00,pth,9.60
2023-10-14T14:55:00,pth,7.20
2023-10-14T14:57:00,pth,9.60
2023-10-14T14:59:00,pth,8.40
2023-10-14T15:00:00,pth,7.20
2023-10-14T15:02:00,pth,9.60
2023-10-14T15:04:00,pth,13.20
2023-10-14T15:05:00,pth,1.20
2023-10-14T15:07:00,pth,12.00
2023-10-14T15:08:00,pth,1.20
2023-10-14T15:10:00,pth,12.00
2023-10-14T15:12:00,pth,6.00
2023-10-14T15:14:00,pth,8.40
2023-10-14T15:16:00,pth,12.00
2023-10-14T15:18:00,pth,6.00
2023-10-14T15:19:00,pth,6.00
2023-10-14T15:21:00,pth,7.20
2023-10-14T15:22:00,pth,6.00
2023-10-14T15:24:00,pth,7.20
2023-10-14T15:26:00,pth,10.80
2023-10-14T15:28:00,pth,13.20
2023-10-14T15:29:00,pth,3.60
2023-10-14T15:31:00,pth,10.80
2023-10-14T15:33:00,pth,8.40
2023-10-14T15:35:00,pth,9.60
2023-10-14T15:37:00,pth,1.20
2023-10-14T15:39:00,pth,2.40
2023-10-14T15:41:00,pth,2.40
2023-10-14T15:42:00,pth,1.20
2023-10-14T15:44:00,pth,14.40
2023-10-14T15:45:00,pth,7.20
2023-10-14T15:47:00,pth,8.40
2023-10-14T15:48:00,pth,4.80
2023-10-14T15:50:00,pth,9.60
2023-10-14T15:51:00,pth,2.40
2023-10-14T15:53:00,pth,12.00
2023-10-14T15:55:00,pth,4.80
2023-10-14T15:57:00,pth,9.60
2023-10-14T15:58:00,pth,2.40
2023-10-14T16:00:00,pth,12.00
2023-10-14T16:02:00,pth,6.00
2023-10-14T16:03:00,pth,7.20
2023-10-14T16:04:00,pth,3.60
2023-10-14T16:06:00,pth,4.80
2023-10-14T16:07:00,pth,1.20
2023-10-14T16:09:00,pth,3.60
2023-10-14T16:10:00,pth,1.20
2023-10-14T16:13:00,pth,2.40
2023-10-14T16:15:00,pth,1.20
2023-10-14T16:17:00,pth,2.40
2023-10-14T16:19:00,pth,1.20
2023-10-14T16:21:00,pth,2.40
2023-10-14T16:23:00,pth,1.20
2023-10-14T16:25:00,pth,2.40
2023-10-14T16:27:00,pth,1.20
2023-10-14T16:29:00,pth,2.40
2023-10-14T16:31:00,pth,1.20
2023-10-14T16:33:00,pth,2.40
2023-10-14T16:34:00,pth,1.20
2023-10-14T16:36:00,pth,1.20
2023-10-14T16:38:00,pth,2.40
2023-10-14T16:40:00,pth,1.20
2023-10-14T16:42:00,pth,1.20
2023-10-14T16:44:00,pth,2.40
2023-10-14T16:45:00,pth,1.20
2023-10-14T16:47:00,pth,1.20
2023-10-14T16:49:00,pth,2.40
2023-10-14T16:51:00,pth,1.20
2023-10-14T16:52:00,pth,1.20
2023-10-14T16:54:00,pth,2.40
2023-10-14T16:55:00,pth,1.20
2023-10-14T16:57:00,pth,1.20
2023-10-14T16:58:00,pth,1.20
2023-10-14T16:59:00,pth,1.20
2023-10-14T17:00:00,pth,1.20
2023-10-14T17:02:00,pth,2.40
2023-10-14T17:04:00,pth,1.20
2023-10-14T17:05:00,pth,1.20
2023-10-14T17:07:00,pth,2.40
2023-10-14T17:08:00,pth,1.20
2023-10-14T17:09:00,pth,1.20
2023-10-14T17:10:00,pth,1.20
2023-10-14T17:12:00,pth,2.40
2023-10-14T17:14:00,pth,1.20
2023-10-14T17:16:00,pth,2.40
2023-10-14T17:17:00,pth,1.20
2023-10-14T17:19:00,pth,1.20
2023-10-14T17:20:00,pth,1.20
2023-10-14T17:21:00,pth,1.20
2023-10-14T17:23:00,pth,2.40
2023-10-14T17:24:00,pth,1.20
2023-10-14T17:26:00,pth,2.40
2023-10-14T17:28:00,pth,1.20
2023-10-14T17:30:00,pth,2.40
2023-10-14T17:32:00,pth,2.40
2023-10-14T17:34:00,pth,1.20
2023-10-14T17:35:00,pth,1.20
2023-10-14T17:37:00,pth,2.40
2023-10-14T17:39:00,pth,2.40
2023-10-14T17:40:00,pth,1.20
2023-10-14T17:42:00,pth,2.40
2023-10-14T17:44:00,pth,2.40
2023-10-14T17:46:00,pth,1.20
2023-10-14T17:48:00,pth,2.40
2023-10-14T17:50:00,pth,2.40
2023-10-14T17:52:00,pth,3.60
2023-10-14T17:54:00,pth,2.40
2023-10-14T17:56:00,pth,2.40
2023-10-14T17:57:00,pth,1.20
2023-10-14T17:59:00,pth,3.60
2023-10-14T18:00:00,pth,1.20
2023-10-14T18:02:00,pth,2.40
2023-10-14T18:04:00,pth,1.20
2023-10-14T18:06:00,pth,3.60
2023-10-14T18:08:00,pth,2.40
2023-10-14T18:10:00,pth,2.40
2023-10-14T18:12:00,pth,2.40
2023-10-14T18:14:00,pth,3.60
2023-10-14T18:16:00,pth,3.60
2023-10-14T18:17:00,pth,2.40
2023-10-14T18:19:00,pth,3.60
2023-10-14T18:20:00,pth,1.20
2023-10-14T18:22:00,pth,2.40
2023-10-14T18:24:00,pth,2.40
2023-10-14T18:25:00,pth,1.20
2023-10-14T18:26:00,pth,1.20
2023-10-14T18:28:00,pth,2.40
2023-10-14T18:30:00,pth,2.40
2023-10-14T18:31:00,pth,1.20
2023-10-14T18:33:00,pth,3.60
2023-10-14T18:34:00,pth,2.40
2023-10-14T18:36:00,pth,3.60
2023-10-14T18:38:00,pth,2.40
2023-10-14T18:39:00,pth,1.20
2023-10-14T18:41:00,pth,2.40
2023-10-14T18:42:00,pth,1.20
2023-10-14T18:43:00,pth,1.20
2023-10-14T18:45:00,pth,3.60
2023-10-14T18:47:00,pth,2.40
2023-10-14T18:49:00,pth,2.40
2023-10-14T18:50:00,pth,2.40
2023-10-14T18:52:00,pth,2.40
2023-10-14T18:54:00,pth,2.40
2023-10-14T18:55:00,pth,2.40
2023-10-14T18:57:00,pth,3.60
2023-10-14T18:59:00,pth,2.40
2023-10-14T19:00:00,pth,2.40
2023-10-14T19:02:00,pth,2.40
2023-10-14T19:04:00,pth,2.40
2023-10-14T19:05:00,pth,1.20
2023-10-14T19:07:00,pth,2.40
2023-10-14T19:09:00,pth,3.60
2023-10-14T19:10:00,pth,3.60
2023-10-14T19:11:00,pth,2.40
2023-10-14T19:12:00,pth,3.60
2023-10-14T19:14:00,pth,3.60
2023-10-14T19:15:00,pth,1.20
2023-10-14T19:16:00,pth,2.40
2023-10-14T19:18:00,pth,2.40
2023-10-14T19:20:00,pth,3.60
2023-10-14T19:21:00,pth,2.40
2023-10-14T19:23:00,pth,3.60
2023-10-14T19:24:00,pth,2.40
2023-10-14T19:26:00,pth,3.60
2023-10-14T19:28:00,pth,3.60
2023-10-14T19:29:00,pth,1.20
2023-10-14T19:31:00,pth,3.60
2023-10-14T19:32:00,pth,2.40
2023-10-14T19:34:00,pth,3.60
2023-10-14T19:36:00,pth,2.40
2023-10-14T19:38:00,pth,4.80
2023-10-14T19:39:00,pth,1.20
2023-10-14T19:40:00,pth,2.40
2023-10-14T19:41:00,pth,1.20
2023-10-14T19:43:00,pth,3.60
2023-10-14T19:45:00,pth,2.40
2023-10-14T19:47:00,pth,3.60
2023-10-14T19:48:00,pth,2.40
2023-10-14T19:50:00,pth,3.60
2023-10-14T19:52:00,pth,2.40
2023-10-14T19:54:00,pth,7.20
2023-10-14T19:55:00,pth,3.60
2023-10-14T19:57:00,pth,7.20
2023-10-14T19:58:00,pth,2.40
2023-10-14T20:00:00,pth,7.20
2023-10-14T20:02:00,pth,7.20
2023-10-14T20:03:00,pth,2.40
2023-10-14T20:05:00,pth,4.80
2023-10-14T20:06:00,pth,2.40
2023-10-14T20:07:00,pth,1.20
2023-10-14T20:09:00,pth,3.60
2023-10-14T20:11:00,pth,2.40
2023-10-14T20:13:00,pth,3.60
2023-10-14T20:14:00,pth,1.20
2023-10-14T20:16:00,pth,3.60
2023-10-14T20:18:00,pth,2.40
2023-10-14T20:19:00,pth,1.20
2023-10-14T20:21:00,pth,3.60
2023-10-14T20:23:00,pth,3.60
2023-10-14T20:25:00,pth,2.40
2023-10-14T20:27:00,pth,3.60
2023-10-14T20:28:00,pth,1.20
2023-10-14T20:30:00,pth,3.60
2023-10-14T20:32:00,pth,3.60
2023-10-14T20:33:00,pth,2.40
2023-10-14T20:35:00,pth,3.60
2023-10-14T20:36:00,pth,3.60
2023-10-14T20:37:00,pth,3.60
2023-10-14T20:39:00,pth,7.20
2023-10-14T20:41:00,pth,7.20
2023-10-14T20:43:00,pth,6.00
2023-10-14T20:44:00,pth,3.60
2023-10-14T20:45:00,pth,2.40
2023-10-14T20:47:00,pth,2.40
2023-10-14T20:48:00,pth,1.20
2023-10-14T20:50:00,pth,3.60
2023-10-14T20:52:00,pth,3.60
2023-10-14T20:53:00,pth,1.20
2023-10-14T20:55:00,pth,3.60
2023-10-14T20:56:00,pth,1.20
2023-10-14T20:57:00,pth,2.40
2023-10-14T20:58:00,pth,1.20
2023-10-14T21:00:00,pth,4.80
2023-10-14T21:01:00,pth,1.20
2023-10-14T21:03:00,pth,3.60
2023-10-14T21:05:00,pth,3.60
2023-10-14T21:07:00,pth,3.60
2023-10-14T21:09:00,pth,2.40
2023-10-14T21:11:00,pth,3.60
2023-10-14T21:13:00,pth,4.80
2023-10-14T21:15:00,pth,6.00
2023-10-14T21:16:00,pth,4.80
2023-10-14T21:17:00,pth,4.80
2023-10-14T21:19:00,pth,8.40
2023-10-14T21:21:00,pth,7.20
2023-10-14T21:22:00,pth,1.20
2023-10-14T21:24:00,pth,3.60
2023-10-14T21:25:00,pth,2.40
2023-10-14T21:27:00,pth,2.40
2023-10-14T21:29:00,pth,3.60
2023-10-14T21:31:00,pth,2.40
2023-10-14T21:33:00,pth,3.60
2023-10-14T21:34:00,pth,1.20
2023-10-14T21:36:00,pth,3.60
2023-10-14T21:37:00,pth,2.40
2023-10-14T21:39:00,pth,3.60
2023-10-14T21:41:00,pth,2.40
2023-10-14T21:43:00,pth,2.40
2023-10-14T21:44:00,pth,1.20
2023-10-14T21:46:00,pth,3.60
2023-10-14T21:47:00,pth,2.40
2023-10-14T21:48:00,pth,2.40
2023-10-14T21:50:00,pth,7.20
2023-10-14T21:52:00,pth,14.40
2023-10-14T21:54:00,pth,15.60
2023-10-14T21:56:00,pth,14.40
2023-10-14T21:58:00,pth,16.80
2023-10-14T21:59:00,pth,7.20
2023-10-14T22:01:00,pth,16.80
2023-10-14T22:03:00,pth,15.60
2023-10-14T22:05:00,pth,16.80
2023-10-14T22:07:00,pth,15.60
2023-10-14T22:08:00,pth,8.40
2023-10-14T22:09:00,pth,7.20
2023-10-14T22:10:00,pth,7.20
2023-10-14T22:12:00,pth,14.40
2023-10-14T22:13:00,pth,7.20
2023-10-14T22:15:00,pth,13.20
2023-10-14T22:17:00,pth,14.40
2023-10-14T22:18:00,pth,7.20
2023-10-14T22:19:00,pth,7.20
2023-10-14T22:20:00,pth,7.20
2023-10-14T22:22:00,pth,13.20
2023-10-14T22:23:00,pth,8.40
2023-10-14T22:25:00,pth,15.60
2023-10-14T22:26:00,pth,8.40
2023-10-14T22:28:00,pth,15.60
2023-10-14T22:29:00,pth,8.40
2023-10-14T22:30:00,pth,8.40
2023-10-14T22:32:00,pth,15.60
2023-10-14T22:33:00,pth,8.40
2023-10-14T22:35:00,pth,8.40
2023-10-14T22:36:00,pth,8.40
2023-10-14T22:38:00,pth,15.60
2023-10-14T22:40:00,pth,15.60
2023-10-14T22:41:00,pth,8.40
2023-10-14T22:43:00,pth,18.00
2023-10-14T22:44:00,pth,9.60
2023-10-14T22:45:00,pth,3.60
2023-10-14T22:47:00,pth,14.40